Regional Weather Roundup
Issued by NWS Tiyan, Guam

Home | Current Version | Previous Version | Text Only | Print | Product List | Glossary On
Versions: 1 2 3 4 5 6 7 8 9 10 11 12 13 14 15 16 17 18 19 20 21 22 23 24 25 26 27 28 29 30 31 32 33 34 35 36 37 38 39 40 41 42 43 44 45 46 47 48 49 50
000
ASGM40 PGUM 010510
RWRGUM
WEATHER ROUNDUP FOR THE MARIANAS
NATIONAL WEATHER SERVICE TIYAN GU
300 PM CHST SUN MAR 01 2015

GUZ001>004-010600-
MARIANA ISLANDS-

CITY           SKY/WX    TMP DP  RH WIND       PRES   REMARKS
GUAM AIRPORT   MOSUNNY   88  72  58 NE18G26   29.83F HX  94
ANDERSEN AFB   MOSUNNY   82  72  69 NE18      29.84F
ROTA AIRPORT   NOT AVBL
TINIAN AP      MOSUNNY   82  72  69 E23       29.84
SAIPAN AP      SUNNY     84  70  61 E17       29.85F

$$



USA.gov is the U.S. government's official web portal to all federal, state and local government web resources and services.